Location: Columbus
(29.5618°N, 96.6770°W)
Time: 22:57:43
(UTC-06:00)

Daily predictions for brighter satellites

Satellite Brightness Start Highest point End
(mag) Time Altitude Azimuth Time Altitude Azimuth Time Altitude Azimuth
Cosmos 1980 3.7 18:39:23 10° NNW 18:45:05 85° ENE 18:50:45 10° SSE
EO 1 Del DPAF 3.2 18:42:58 10° NNE 18:46:44 62° E 18:50:30 10° S
NOAA 12 4.1 18:42:36 10° SSE 18:47:47 61° ENE 18:53:02 10° N
Gbstr 26 Del rocket 2.8 18:47:10 10° SSW 18:50:51 55° SE 18:54:32 10° NE
Landsat 4 3.9 18:50:54 10° N 18:54:38 75° WNW 18:58:23 10° SSW
Meteor 1-4 Rocket 4.5 18:55:06 10° ESE 18:55:43 11° E 18:55:43 11° E
Centaur AC-64 4.3 18:53:56 10° WSW 18:56:34 27° S 19:03:12 10° ESE
Sakura Rocket 3.9 18:52:25 10° WSW 18:57:25 72° S 19:03:57 12° E
Envisat 4.5 18:56:57 10° ESE 19:00:01 16° ENE 19:03:03 10° NNE
COSMOS 2455 3.9 18:55:37 10° SSE 19:00:10 23° ESE 19:04:44 10° NE
USA 215 3.3 18:55:53 10° NE 19:02:25 73° SE 19:08:55 10° SW
Cosmos 1975 Rocket 4.5 18:59:33 10° NE 19:02:32 18° ENE 19:05:33 10° ESE
ALOS 2.8 18:59:58 10° S 19:04:34 63° W 19:09:13 10° NNW
FengYun 1-2 T 4.5 19:00:52 10° SE 19:06:06 46° ENE 19:11:18 10° N
BREEZE-M DEB (TANK) 2.5 19:07:22 10° SSW 19:09:46 61° SE 19:14:22 10° NE
Cosmos 1269 Rocket 4.0 19:06:00 10° S 19:11:13 66° ESE 19:16:27 10° NNE
USA 32 4.1 19:06:30 10° SSE 19:11:34 54° E 19:16:39 10° NNE
Thor Agena Rocket 3.9 19:08:25 10° NNE 19:13:10 39° E 19:17:50 10° S
Cosmos 44 3.6 19:10:08 10° NNW 19:15:10 54° ENE 19:20:21 10° SE
FENGYUN 3A 4.5 19:11:15 10° S 19:16:31 55° W 19:21:49 10° NNW
Alouette 2 Rocket 4.5 19:15:42 10° SE 19:18:26 20° E 19:18:26 20° E
Cosmos 1633 3.9 19:20:28 10° SSW 19:23:49 41° W 19:27:12 10° N
Cosmos 1378 Rocket 3.5 19:20:27 10° N 19:24:51 74° E 19:29:17 10° S
Shenzhou-11 Module 4.2 19:23:24 10° W 19:25:52 23° SW 19:28:19 10° SSE
SJ-6B 3.3 19:23:14 10° SE 19:26:39 34° ENE 19:30:08 10° N
Cosmos 1782 Rocket 3.5 19:22:54 10° S 19:27:19 74° E 19:31:45 10° N
H-2A R/B 3.0 19:24:57 10° S 19:28:50 74° WSW 19:32:45 10° NNW
Cosmos 2237 Rocket 3.7 19:23:50 10° NW 19:29:00 39° WSW 19:34:10 10° S
Tsikada Rocket 4.0 19:22:54 10° S 19:29:09 60° E 19:35:27 10° NNE
CENTAUR R/B 3.8 19:24:25 10° WSW 19:29:49 38° NW 19:35:52 10° NNE
Sich 1 Rocket 4.0 19:28:54 10° SSW 19:33:22 66° W 19:37:50 10° N
SL-16 R/B 2.1 19:28:18 10° NNW 19:33:59 80° ENE 19:39:37 10° SSE
ERS-2 2.0 19:30:38 10° SSE 19:34:17 82° E 19:37:59 10° N
GPS 2-05 Rocket1 2.4 19:33:27 10° WSW 19:36:38 86° NNW 19:37:12 56° ENE
Lacrosse 5 3.6 19:32:52 10° WNW 19:37:20 32° WSW 19:41:47 10° S
Okean 1 3.3 19:43:41 10° N 19:47:40 83° W 19:51:37 10° S
Okean 2 Rocket 2.9 19:43:30 10° S 19:47:51 75° E 19:52:15 10° N
Meteor 1-13 Rocket 4.5 19:42:45 10° N 19:47:55 40° E 19:49:05 36° ESE
CZ-2D R/B 3.2 19:47:40 45° SE 19:48:35 60° ENE 19:52:25 10° N
CRYOSAT 2 4.2 19:44:30 10° N 19:49:23 86° E 19:54:14 10° S
Cosmos 1464 Rocket 4.4 19:43:46 10° NNW 19:49:49 64° W 19:55:53 10° S
Iridium 4 Rocket 3.9 19:47:43 10° NNW 19:52:14 52° W 19:56:25 10° SSW
FALCON 9 R/B 4.4 19:44:22 10° WNW 19:52:33 77° NNE 20:10:12 29° E
Cosmos 1603 4.4 19:47:30 10° N 19:52:03 33° NE 19:52:03 33° NE
Cosmos 2251 Rocket 3.7 19:51:59 10° S 19:56:36 45° ESE 19:56:36 45° ESE
Geosat 3.8 19:54:24 16° NNE 19:58:25 82° ESE 20:03:26 10° SSW
Cosmos 2263 Rocket 2.1 19:58:39 10° S 20:04:05 60° ESE 20:04:56 53° ENE
OAO 2 Rocket 3.8 20:03:46 10° WNW 20:08:29 43° N 20:08:56 42° NNE
Cosmos 921 Rocket 3.6 20:08:04 10° NNW 20:12:30 59° WSW 20:14:59 24° S
Tiangong 2 3.3 20:13:00 10° WNW 20:14:35 26° WNW 20:14:35 26° WNW
Meteor 1-5 Rocket 4.2 20:18:54 10° S 20:24:42 88° E 20:30:41 10° N
Meteor 1-11 Rocket 4.3 20:22:29 10° SSW 20:27:54 56° W 20:33:27 10° N
Meteor 2-4 Rocket 3.9 20:22:47 10° N 20:27:29 61° N 20:27:29 61° N
SeaSat 1 2.9 20:30:03 53° NNW 20:30:03 53° NNW 20:33:49 10° NNW
Cosmos 1634 Rocket 4.3 20:32:16 10° N 20:36:51 53° N 20:36:51 53° N
Envisat 4.0 20:33:47 10° S 20:38:36 44° W 20:43:26 10° NNW
Resurs 01 Rocket 4.1 20:43:36 14° NNW 20:43:36 14° NNW 20:44:14 10° NNW
COSMOS 2455 3.9 20:40:06 10° SW 20:45:44 41° WNW 20:48:54 24° N
Sakura Rocket 4.2 20:45:46 10° W 20:51:23 75° WSW 20:51:23 75° WSW
CZ-4C R/B 4.2 20:52:24 10° NNW 20:55:55 27° N 20:55:55 27° N
CZ-3C R/B 4.1 21:55:28 10° WSW 22:45:46 15° ESE 23:02:10 10° ESE
